Location: Monroe
(41.9160°N, 83.3980°W)
Time: 19:00:44
(UTC-04:00)

ISS - Visible Passes

Search period start: 30 July 2015 00:00
Search period end: 09 August 2015 00:00
Orbit: 402 x 403 km, 51.6° (Epoch: 30 July)

Date Brightness Start Highest point End Pass type
(mag) Time Alt. Az. Time Alt. Az. Time Alt. Az.
30 Jul -0.2 02:27:13 13° NNW 02:28:15 15° N 02:30:14 10° NE visible
30 Jul -1.1 04:02:39 10° NW 04:05:29 27° NNE 04:08:21 10° E visible
30 Jul -3.2 05:38:54 10° WNW 05:42:04 50° SW 05:45:14 10° SE visible
30 Jul -2.9 22:18:15 10° SSW 22:21:18 38° SE 22:23:39 15° ENE visible
30 Jul -1.1 23:54:49 10° W 23:56:35 23° WNW 23:56:35 23° WNW visible
31 Jul 0.1 01:36:54 10° NNE 01:36:54 10° NNE 01:36:58 10° NE visible
31 Jul -0.6 03:09:45 10° NW 03:12:16 20° NNE 03:14:48 10° ENE visible
31 Jul -3.4 04:45:49 10° NW 04:49:05 84° NNE 04:52:21 10° ESE visible
31 Jul -2.0 21:25:56 10° S 21:28:22 20° SE 21:30:52 10° E visible
31 Jul -2.4 23:01:25 10° WSW 23:04:35 49° NNW 23:07:47 10° NE visible
01 Aug -0.3 00:39:21 10° NW 00:41:36 17° N 00:41:37 17° N visible
01 Aug0.302:21:59ENE02:21:59ENE02:14:18NWvisible
01 Aug -2.3 03:54:55 32° NNW 03:55:58 46° NNE 03:59:07 10° ESE visible
01 Aug -2.1 05:29:37 10° W 05:32:13 21° SW 05:34:45 10° S visible
01 Aug -3.4 22:08:09 10° SW 22:11:25 90° NW 22:14:42 10° NE visible
01 Aug -0.6 23:45:38 10° WNW 23:48:12 21° NNW 23:50:45 10° NE visible
02 Aug 0.1 01:23:31 10° NW 01:23:45 11° NNW 01:23:45 11° NNW visible
02 Aug -0.8 04:42:07 11° SSE 04:42:07 11° SSE 04:42:16 10° SSE visible
02 Aug -1.2 22:51:55 10° W 22:54:47 28° NNW 22:57:41 10° NE visible
03 Aug -0.2 00:30:01 10° NW 00:32:00 15° N 00:32:31 14° N visible
03 Aug -2.0 21:58:16 10° WSW 22:01:24 43° NNW 22:04:32 10° NE visible
03 Aug -0.3 23:36:16 10° NW 23:38:26 16° N 23:40:35 10° NNE visible
04 Aug 0.2 01:13:30 10° NNW 01:13:39 11° NNW 01:13:39 11° NNW visible
04 Aug -0.6 22:42:21 10° WNW 22:44:49 20° NNW 22:47:18 10° NE visible
05 Aug -0.3 00:20:06 10° NNW 00:22:04 15° N 00:22:04 15° N visible
05 Aug -1.0 21:48:24 10° W 21:51:12 26° NNW 21:54:01 10° NE visible
05 Aug -0.3 23:26:27 10° NW 23:28:25 15° N 23:30:22 10° NE visible
06 Aug -0.4 22:32:32 10° NW 22:34:39 16° N 22:36:45 10° NNE visible
07 Aug -0.4 00:09:37 10° NNW 00:11:13 17° N 00:11:13 17° N visible
07 Aug -0.6 21:38:26 10° WNW 21:40:50 19° NNW 21:43:14 10° NNE visible
07 Aug -0.6 23:16:04 10° NNW 23:18:08 16° N 23:19:25 13° NNE visible
08 Aug -0.5 22:22:16 10° NW 22:24:13 15° N 22:26:10 10° NE visible
